Weather History for KMPZ - October, 2013

Change the Weather History Date:

Thursday, October 17, 2013

  Actual Average Record
Temperature  
Mean Temperature 54 °F -  
Max Temperature 65 °F 64 °F 89 °F (1950)
Min Temperature 44 °F 40 °F 26 °F (1966)
Degree Days  
Heating Degree Days 10    
Growing Degree Days 4 (Base 50)    
Moisture  
Dew Point 36 °F    
Average Humidity 59    
Maximum Humidity 91    
Minimum Humidity 23    
Precipitation  
Precipitation 0.00 in - - ()
Sea Level Pressure  
Sea Level Pressure 29.90 in    
Wind  
Wind Speed 6 mph (SW)    
Max Wind Speed 16 mph    
Max Gust Speed 21 mph    
Visibility 10 miles    
Events      
Averages and records for this station are not official NWS values.
T = Trace of Precipitation, MM = Missing Value Source: NWS Daily Summary

Daily Weather History Graph

Daily Weather History Graph

Search for Another Location

Airport or City:

Trip Planner

Search our weather history database for the weather conditions in past years. The results will help you decide how hot, cold, wet, or windy it might be!

Date:

Astronomy

Oct. 17, 2013 Rise Set
Actual Time 7:19 AM CDT 6:22 PM CDT
Civil Twilight 6:52 AM CDT 6:49 PM CDT
Nautical Twilight 6:20 AM CDT 7:21 PM CDT
Astronomical Twilight 5:48 AM CDT 7:53 PM CDT
Moon 5:36 PM CDT (10/17) 5:52 AM CDT (10/17)
Length of Visible Light 11h 57m
Length of Day
11h 02m
Waxing Gibbous, 98% of the Moon is Illuminated
Oct 17
Waxing Gibbous
Oct 18
Full
Oct 26
Last Quarter
Nov 3
New
Nov 9
First Quarter

Hourly Weather History & Observations

Time (CDT) Temp. Windchill Dew Point Humidity Pressure Visibility Wind Dir Wind Speed Gust Speed Precip Events Conditions
12:15 AM 48.7 °F - 41.4 °F 76% 29.98 in 10.0 mi West 4.6 mph - N/A   Overcast
12:35 AM 48.4 °F - 42.1 °F 79% 29.98 in 10.0 mi West 4.6 mph - N/A   Overcast
12:55 AM 48.2 °F - 42.1 °F 79% 29.97 in 10.0 mi WSW 3.5 mph - N/A   Overcast
1:15 AM 48.2 °F - 42.1 °F 79% 29.96 in 10.0 mi Calm Calm - N/A   Overcast
1:35 AM 48.2 °F - 42.6 °F 81% 29.97 in 10.0 mi SSW 4.6 mph - N/A   Overcast
1:55 AM 48.2 °F - 42.3 °F 80% 29.97 in 10.0 mi South 4.6 mph - N/A   Overcast
2:15 AM 48.2 °F - 42.3 °F 80% 29.96 in 10.0 mi Calm Calm - N/A   Overcast
2:35 AM 48.0 °F - 42.4 °F 81% 29.96 in 10.0 mi SSW 3.5 mph - N/A   Overcast
2:55 AM 48.2 °F - 42.1 °F 79% 29.95 in 10.0 mi Calm Calm - N/A   Overcast
3:15 AM 48.2 °F - 42.1 °F 79% 29.95 in 10.0 mi South 3.5 mph - N/A   Overcast
3:35 AM 47.8 °F - 42.1 °F 80% 29.94 in 10.0 mi Calm Calm - N/A   Overcast
3:55 AM 47.7 °F - 42.1 °F 81% 29.93 in 10.0 mi Calm Calm - N/A   Overcast
4:15 AM 47.7 °F - 42.3 °F 82% 29.93 in 10.0 mi Calm Calm - N/A   Overcast
4:35 AM 47.5 °F - 42.1 °F 82% 29.93 in 10.0 mi West 3.5 mph - N/A   Overcast
4:55 AM 47.5 °F - 41.9 °F 81% 29.93 in 10.0 mi Calm Calm - N/A   Overcast
5:15 AM 46.9 °F - 42.1 °F 83% 29.93 in 10.0 mi SW 4.6 mph - N/A   Mostly Cloudy
5:35 AM 46.0 °F 44.8 °F 42.3 °F 87% 29.92 in 10.0 mi SW 3.5 mph - N/A   Scattered Clouds
5:55 AM 45.9 °F 44.6 °F 42.6 °F 88% 29.92 in 10.0 mi SSW 3.5 mph - N/A   Clear
6:15 AM 45.7 °F 43.4 °F 42.4 °F 88% 29.92 in 10.0 mi SSW 4.6 mph - N/A   Clear
6:35 AM 44.4 °F 40.5 °F 41.4 °F 89% 29.92 in 10.0 mi SSW 6.9 mph - N/A   Clear
6:55 AM 44.6 °F 40.7 °F 41.9 °F 90% 29.93 in 10.0 mi SSW 6.9 mph - N/A   Clear
7:15 AM 45.0 °F 41.8 °F 42.3 °F 90% 29.93 in 10.0 mi SSW 5.8 mph - N/A   Clear
7:35 AM 44.6 °F 42.2 °F 42.1 °F 91% 29.93 in 10.0 mi SSW 4.6 mph - N/A   Clear
7:55 AM 44.4 °F 42.0 °F 41.9 °F 91% 29.93 in 10.0 mi SSW 4.6 mph - N/A   Clear
8:15 AM 44.6 °F 40.7 °F 42.1 °F 91% 29.93 in 10.0 mi SSW 6.9 mph - N/A   Clear
8:35 AM 45.5 °F 41.3 °F 42.1 °F 88% 29.94 in 10.0 mi SSW 8.1 mph - N/A   Clear
8:55 AM 46.2 °F 42.7 °F 42.3 °F 86% 29.94 in 10.0 mi SW 6.9 mph - N/A   Clear
9:15 AM 47.5 °F - 42.8 °F 84% 29.93 in 10.0 mi SW 9.2 mph - N/A   Clear
9:35 AM 50.0 °F - 42.3 °F 75% 29.93 in 10.0 mi SW 11.5 mph - N/A   Clear
9:55 AM 52.3 °F - 41.5 °F 67% 29.93 in 10.0 mi SW 12.7 mph - N/A   Clear
10:15 AM 55.2 °F - 40.8 °F 58% 29.93 in 10.0 mi WSW 13.8 mph 18.4 mph N/A   Clear
10:35 AM 54.9 °F - 40.5 °F 58% 29.93 in 10.0 mi SW 11.5 mph - N/A   Clear
10:55 AM 56.7 °F - 39.0 °F 52% 29.93 in 10.0 mi SW 10.4 mph - N/A   Clear
11:15 AM 58.1 °F - 36.5 °F 44% 29.92 in 10.0 mi SW 12.7 mph 17.3 mph N/A   Clear
11:35 AM 58.6 °F - 35.8 °F 42% 29.91 in 10.0 mi West 11.5 mph - N/A   Clear
11:55 AM 59.5 °F - 31.8 °F 35% 29.91 in 10.0 mi WSW 10.4 mph 16.1 mph N/A   Clear
12:15 PM 60.6 °F - 31.6 °F 34% 29.90 in 10.0 mi West 11.5 mph 18.4 mph N/A   Scattered Clouds
12:35 PM 60.6 °F - 30.7 °F 32% 29.90 in 10.0 mi WSW 13.8 mph 17.3 mph N/A   Scattered Clouds
12:55 PM 60.6 °F - 31.3 °F 33% 29.89 in 10.0 mi West 9.2 mph 17.3 mph N/A   Scattered Clouds
1:15 PM 61.0 °F - 29.8 °F 31% 29.88 in 10.0 mi West 9.2 mph - N/A   Scattered Clouds
1:35 PM 62.8 °F - 28.8 °F 28% 29.87 in 10.0 mi West 9.2 mph 12.7 mph N/A   Scattered Clouds
1:55 PM 62.6 °F - 27.3 °F 26% 29.86 in 10.0 mi WSW 9.2 mph 16.1 mph N/A   Scattered Clouds
2:15 PM 64.0 °F - 26.1 °F 24% 29.86 in 10.0 mi West 11.5 mph 20.7 mph N/A   Clear
2:35 PM 64.4 °F - 27.3 °F 25% 29.86 in 10.0 mi WSW 16.1 mph - N/A   Scattered Clouds
2:55 PM 64.4 °F - 27.3 °F 25% 29.85 in 10.0 mi West 10.4 mph 18.4 mph N/A   Clear
3:15 PM 64.2 °F - 27.3 °F 25% 29.85 in 10.0 mi WSW 10.4 mph - N/A   Clear
3:35 PM 65.3 °F - 26.1 °F 23% 29.85 in 10.0 mi West 9.2 mph 16.1 mph N/A   Scattered Clouds
3:55 PM 64.6 °F - 25.7 °F 23% 29.85 in 10.0 mi West 9.2 mph 17.3 mph N/A   Clear
4:15 PM 64.4 °F - 26.1 °F 23% 29.85 in 10.0 mi West 10.4 mph - N/A   Clear
4:35 PM 64.6 °F - 26.4 °F 24% 29.85 in 10.0 mi West 9.2 mph - N/A   Clear
4:55 PM 62.6 °F - 26.6 °F 26% 29.85 in 10.0 mi WSW 9.2 mph - N/A   Clear
5:15 PM 63.0 °F - 27.9 °F 27% 29.85 in 10.0 mi WSW 9.2 mph - N/A   Clear
5:35 PM 61.7 °F - 27.1 °F 27% 29.85 in 10.0 mi West 8.1 mph - N/A   Clear
5:55 PM 60.4 °F - 28.4 °F 30% 29.85 in 10.0 mi WSW 5.8 mph - N/A   Clear
6:15 PM 58.5 °F - 30.2 °F 34% 29.86 in 10.0 mi WSW 6.9 mph - N/A   Clear
6:35 PM 55.0 °F - 30.9 °F 40% 29.87 in 10.0 mi SW 6.9 mph - N/A   Clear
6:55 PM 51.4 °F - 31.5 °F 46% 29.87 in 10.0 mi SSW 5.8 mph - N/A   Clear
7:15 PM 50.9 °F - 32.0 °F 48% 29.87 in 10.0 mi SSW 6.9 mph - N/A   Clear
7:35 PM 50.4 °F - 32.0 °F 49% 29.87 in 7.0 mi SSW 5.8 mph - N/A   Clear
7:55 PM 50.0 °F - 32.0 °F 50% 29.87 in 10.0 mi SSW 4.6 mph - N/A   Clear
8:15 PM 48.4 °F - 33.1 °F 56% 29.87 in 10.0 mi SSW 6.9 mph - N/A   Clear
8:35 PM 48.6 °F - 33.8 °F 57% 29.87 in 10.0 mi SSW 4.6 mph - N/A   Clear
8:55 PM 48.0 °F - 33.8 °F 58% 29.87 in 10.0 mi SSW 4.6 mph - N/A   Clear
9:15 PM 48.0 °F - 34.0 °F 58% 29.88 in 10.0 mi SW 3.5 mph - N/A   Clear
9:35 PM 46.9 °F - 33.8 °F 60% 29.88 in 10.0 mi SSW 4.6 mph - N/A   Clear
9:55 PM 48.0 °F - 33.8 °F 58% 29.88 in 10.0 mi SW 4.6 mph - N/A   Clear
10:15 PM 46.4 °F 43.5 °F 34.0 °F 62% 29.88 in 10.0 mi SW 5.8 mph - N/A   Clear
10:35 PM 45.7 °F 42.0 °F 34.2 °F 64% 29.89 in 10.0 mi WSW 6.9 mph - N/A   Clear
10:55 PM 45.3 °F 41.6 °F 34.5 °F 66% 29.89 in 10.0 mi WSW 6.9 mph - N/A   Clear
11:15 PM 45.9 °F 42.9 °F 34.7 °F 65% 29.89 in 10.0 mi West 5.8 mph - N/A   Clear
11:35 PM 49.5 °F - 35.1 °F 58% 29.90 in 10.0 mi West 6.9 mph - N/A   Clear
11:55 PM 49.3 °F - 36.5 °F 61% 29.90 in 10.0 mi WNW 11.5 mph 16.1 mph N/A   Clear